Weather Roundup
Issued by NWS Chicago, IL

Home | Current Version | Previous Version | Text Only | Print | Product List | Glossary Off
Versions: 1 2 3 4 5 6 7 8 9 10 11 12 13 14 15 16 17 18 19 20 21 22 23 24 25 26 27 28 29 30 31 32 33 34 35 36 37 38 39 40 41 42 43 44 45 46 47 48 49 50

000
NZUS59 KLOT 301321
HRRLOT

CHICAGO AREA WEATHER ROUNDUP
NATIONAL WEATHER SERVICE CHICAGO/ROMEOVILLE IL
800 AM CDT TUE JUN 30 2015

NOTE: "FAIR" INDICATES FEW OR NO CLOUDS BELOW 12,000 FEET WITH NO
SIGNIFICANT WEATHER AND/OR OBSTRUCTIONS TO VISIBILITY.

* THESE STATIONS ARE NOT UNDER NWS QUALITY CONTROL. THEY ALSO MAY NOT
  REPORT WEATHER SUCH AS PRECIPITATION OR FOG.

ILZ005-006-012>014-019>023-301400-
NORTHEAST ILLINOIS

CITY           SKY/WX    TMP DP  RH WIND       PRES   REMARKS
OHARE          MOSUNNY   64  60  87 W7        29.81R
MIDWAY         MOSUNNY   68  62  81 W6        29.81R
AURORA         MOSUNNY   65  61  87 NW7       29.83R FOG
LANSING*       MOSUNNY   66  60  81 W8        29.82R
JOLIET*        MOSUNNY   66  63  89 W5        29.84R
WAUKEGAN       SUNNY     64  59  83 NW7       29.80R
DUPAGE AIRPORT SUNNY     64  61  90 NW5       29.82R
WHEELING       SUNNY     65  59  81 W7        29.82R
KANKAKEE*      SUNNY     66  64  91 W8        29.84R
MORRIS*        SUNNY     65  62  91 W8        29.82R
LEWIS AIRPORT* MOSUNNY   64  62  93 W6        29.83R
NORTHERLY IS     N/A     67  59  75 W7          N/A
$$

WIZ051-052-058>065-066-070>072-301400-
SOUTHEAST WISCONSIN

CITY           SKY/WX    TMP DP  RH WIND       PRES   REMARKS
MILWAUKEE      PTSUNNY   64  58  80 NW9       29.79R
KENOSHA*       SUNNY     64  60  87 NW8       29.81R
RACINE*        SUNNY     64  59  83 W9        29.81R
BURLINGTON     PTSUNNY   60  58  92 N8        29.81S
WAUKESHA       PTSUNNY   59  57  94 NW6       29.82R FOG
WEST BEND      PTSUNNY   63  59  88 NW10      29.80S
$$

INZ001>003-010>013-019-020-301400-
NORTHWEST INDIANA

CITY           SKY/WX    TMP DP  RH WIND       PRES   REMARKS
GARY*          SUNNY    N/A N/A N/A W6        29.81R
MICHIGAN CITY* NOT AVBL
RENSSELAER*    NOT AVBL
VALPARAISO     PTSUNNY   65  63  93 W7        29.82R
$$

LMZ740>746-301400-
SOUTHERN LAKE MICHIGAN

STATION/POSITION TIME  SKY/WX   TEMP WIND        PRES    VSBY
                                AIR  DIR/SP/G
                 (UTC)          (F)  (DEG/KT/KT) (MB)    (MI)
HARRISON CRIB    1300            65  300/  7/  8   N/A
BURNHAM HARBOR   1300            68  290/  6/  9   N/A
CALUMET HARBOR   1300            67  260/  2/  6   N/A
BURNS HARBOR     1200            65  250/  9/ 10 1009.8R
MICHIGAN CITY    1300            63  250/ 10/ 11   N/A
$$

ABBREVIATIONS USED IN REMARKS
   TC - TEMPERATURE IN CELSIUS
  WCI - WIND CHILL INDEX
   HX - HEAT INDEX
  VSB - VISIBILITY
$$



USA.gov is the U.S. government's official web portal to all federal, state and local government web resources and services.